Home > Weather > Amiens > Past weeks

Flag for France Weather for the Past 2 Weeks in Amiens, Picardy, France

Now
32 °F

Clear.


Feels Like: 32 °F
Forecast: 42 / 67 °F
Wind: 2 mph from Northwest

Location: Beauvais Airport

Current Time: May 4, 2016 at 7:05:11 AM

Latest Report: May 4, 2016 at 6:30 AM


Visibility: 10 mi

Pressure: 30.36 "Hg

Humidity: 100%

Dew Point: 32 °F

Location of AmiensLocation

Historic Weather in Amiens — Graph

°F

Amiens Temperature Yesterday

Maximum temperature yesterday: 59 °F (at 3:30 PM)
Minimum temperature yesterday: 39 °F (at 7:00 AM)
Average temperature yesterday: 51 °F

High & Low Weather Summary for the Past Weeks

 TemperatureHumidityPressure
High66 °F (Apr 21, 6:00 PM)100% (Apr 19, 6:00 AM)30.39 "Hg (Apr 19, 6:00 AM)
Low28 °F (Apr 24, 3:00 AM)39% (May 3, 5:00 PM)29.71 "Hg (Apr 25, 10:30 PM)
Average46 °F74%30.09 "Hg
* Reported Apr 19 5:00 AM — May 4 5:30 AM, Amiens, Weather by CustomWeather, © 2016

Note: Actual official high and low records may vary slightly from our data, if they occured in-between our weather recording intervals... More about our weather records

Advertising

Amiens Weather History for the Previous 24 Hours

Scroll right to see more
 ConditionsComfort  
Time TempWeatherWind HumidityBarometerVisibility
5:30 AM
Wed, May 4
32 °FClear.5 mph100%30.36 "Hg10 mi
5:00 AM34 °FClear.3 mph93%30.36 "Hg10 mi
4:30 AM34 °FClear.3 mph93%30.36 "Hg10 mi
4:00 AM32 °FClear.3 mph93%30.36 "Hg10 mi
3:30 AM32 °FClear.2 mph93%30.39 "Hg10 mi
3:00 AM36 °FClear.2 mph87%30.39 "Hg10 mi
2:30 AM37 °FClear.2 mph87%30.39 "Hg10 mi
2:00 AM36 °FClear.1 mph93%30.39 "Hg10 mi
1:30 AM36 °FClear.No wind87%30.39 "Hg10 mi
1:00 AM39 °FClear.2 mph87%30.39 "Hg10 mi
12:30 AM39 °FClear.3 mph87%30.39 "Hg10 mi
12:00 AM39 °FClear.5 mph87%30.39 "Hg10 mi
11:30 PM
Tue, May 3
43 °FClear.3 mph81%30.39 "Hg10 mi
11:00 PM41 °FClear.3 mph81%30.39 "Hg10 mi
10:30 PM45 °FPassing clouds.5 mph76%30.39 "HgN/A
10:00 PM45 °FSunny.7 mph76%30.36 "Hg10 mi
9:30 PM48 °FSunny.9 mph66%30.36 "Hg10 mi
9:00 PM50 °FSunny.8 mph62%30.36 "Hg10 mi
8:30 PM52 °FSunny.8 mph58%30.33 "Hg10 mi
8:00 PM55 °FSunny.10 mph47%30.33 "Hg10 mi
7:30 PM57 °FSunny.9 mph44%30.33 "Hg10 mi
7:00 PM57 °FSunny.9 mph44%30.33 "Hg10 mi
6:30 PM59 °FPassing clouds.6 mph42%30.30 "HgN/A
6:00 PM59 °FPassing clouds.9 mph42%30.33 "HgN/A
5:30 PM59 °FPassing clouds.9 mph42%30.30 "HgN/A
5:00 PM59 °FPassing clouds.12 mph39%30.33 "HgN/A
4:30 PM59 °FPassing clouds.9 mph45%30.33 "HgN/A
4:00 PM59 °FPassing clouds.12 mph45%30.33 "HgN/A
3:30 PM59 °FPassing clouds.10 mph51%30.33 "HgN/A
3:00 PM57 °FPassing clouds.8 mph51%30.30 "HgN/A
2:30 PM57 °FPassing clouds.7 mph51%30.30 "HgN/A
1:30 PM55 °FPartly sunny.10 mph51%30.33 "HgN/A
1:00 PM54 °FBroken clouds.12 mph54%30.33 "HgN/A
12:30 PM57 °FBroken clouds.8 mph59%30.30 "HgN/A
12:00 PM55 °FPartly sunny.10 mph51%30.30 "HgN/A
11:30 AM54 °FScattered clouds.14 mph54%30.30 "HgN/A
11:00 AM54 °FBroken clouds.12 mph63%30.30 "HgN/A
10:30 AM54 °FPassing clouds.9 mph63%30.30 "HgN/A
10:00 AM50 °FPassing clouds.10 mph71%30.27 "HgN/A
9:30 AM52 °FScattered clouds.9 mph77%30.27 "HgN/A
9:00 AM48 °FSunny.10 mph87%30.27 "Hg10 mi
8:30 AM46 °FSunny.8 mph93%30.27 "Hg10 mi
8:00 AM45 °FSunny.8 mph93%30.24 "Hg10 mi
7:30 AM43 °FSunny.8 mph100%30.24 "Hg10 mi
7:00 AM39 °FPassing clouds.6 mph93%30.21 "HgN/A
Weather by CustomWeather, © 2016

See weather overviewHow to use our weather pages